Location: Chariton
(41.0140°N, 93.3060°W)
Time: 07:10:19
(UTC-06:00)

Tiangong 1 - Visible Passes

Search period start: 22 February 2018 00:00
Search period end: 04 March 2018 00:00
Orbit: 247 x 268 km, 42.8° (Epoch: 22 February)

Date Brightness Start Highest point End Pass type
(mag) Time Alt. Az. Time Alt. Az. Time Alt. Az.
28 Feb 3.3 19:36:54 10° SSW 19:36:59 11° SSW 19:36:59 11° SSW visible
01 Mar 2.2 19:28:42 10° SW 19:29:54 22° SSW 19:29:54 22° SSW visible
02 Mar 0.7 19:20:26 10° SW 19:22:29 45° S 19:22:29 45° S visible
03 Mar 0.1 19:12:03 10° WSW 19:14:18 69° SSE 19:14:46 48° E visible
